Wind_Speed
6 7 10 13 16 18 20 21 21 20 21 23 23 25 26 28 28 27 26 26 27 28 28 28 29 30 31 32 33 33 38 36 30 30 28 30 34 41 42 40 36 31 31 30 31
10 12 15 17 19 20 19 18 17 15 18 22 23 24 26 27 27 26 25 25 26 28 29 30 31 31 32 33 34 34 36 32 31 32 33 36 38 39 39 42 39 33 33 31 32
13 15 17 19 19 18 16 14 14 17 20 24 26 28 28 28 28 25 26 28 27 28 30 31 33 34 34 35 36 35 35 35 33 31 36 39 39 41 42 39 35 36 38 36 33
18 19 19 17 15 14 13 15 19 22 23 26 27 28 28 28 28 28 28 28 30 32 34 35 36 37 37 38 37 38 39 37 35 35 37 36 40 41 43 35 34 40 41 39 34
21 22 21 18 15 15 16 19 22 24 27 29 29 28 28 30 31 32 33 32 33 35 36 37 39 41 41 41 41 40 39 39 37 40 40 39 35 41 43 41 39 40 41 40 36
21 23 21 18 17 18 20 22 23 25 25 26 27 28 31 33 34 35 36 36 36 38 39 40 40 42 45 47 47 48 45 43 42 42 41 42 37 37 36 47 41 44 41 41 39
20 20 19 17 17 19 20 21 21 21 23 26 29 30 32 33 34 36 37 38 37 39 41 43 45 47 49 49 50 51 52 50 49 48 48 48 42 38 35 46 43 45 44 39 41
17 17 18 17 16 18 18 18 19 23 26 29 30 29 26 28 31 32 32 34 34 33 33 35 39 43 47 51 55 57 57 56 54 55 56 54 45 36 48 45 43 45 47 43 40
18 18 18 18 15 15 15 17 21 24 26 27 28 28 28 32 35 34 35 32 30 32 37 40 44 48 51 51 52 53 56 57 58 59 58 59 51 47 50 49 47 47 48 49 44
16 15 14 16 16 14 16 20 21 24 25 27 31 31 30 30 33 36 39 37 37 40 43 46 49 50 54 53 52 53 54 54 55 57 63 63 58 56 54 51 51 46 50 51 49
11 11 12 13 15 18 21 23 23 23 24 30 31 33 34 34 36 40 39 38 40 39 41 46 47 51 51 50 51 52 54 55 55 59 65 65 65 62 58 56 53 50 49 53 52
10 11 13 14 15 17 19 22 26 26 29 33 30 35 36 37 37 40 40 39 40 40 43 47 49 49 43 40 40 43 48 52 56 58 62 64 66 64 62 57 58 55 52 52 54
11 14 15 17 18 20 24 26 28 30 32 31 34 35 35 34 36 40 41 40 40 42 43 47 52 47 37 36 35 37 39 44 51 55 60 63 68 64 62 62 60 59 55 54 55
14 16 18 20 21 23 26 27 31 34 33 24 36 37 36 36 40 43 43 41 41 42 44 45 52 46 35 33 34 34 36 39 41 46 50 54 69 66 66 65 63 61 58 55 55
16 17 20 21 21 25 28 30 33 36 37 37 38 39 39 38 42 43 42 41 42 42 42 44 47 42 35 32 32 34 36 38 40 43 46 46 56 68 63 68 64 62 60 56 56
18 19 23 25 27 28 31 32 35 41 40 37 38 39 39 41 44 44 42 40 41 41 40 43 44 40 35 31 33 30 31 32 35 33 40 34 41 53 58 64 65 65 66 62 58
20 22 23 26 27 29 32 36 38 41 41 40 38 38 39 42 44 44 43 42 42 41 41 42 41 40 37 27 26 30 29 22 16 25 27 21 24 28 45 53 59 58 65 68 65
23 24 26 28 31 34 36 36 39 42 44 41 37 38 40 43 44 44 44 43 42 42 45 47 44 40 41 35 27 25 24 24 28 18 23 24 26 22 28 40 54 60 63 68 66
26 28 30 32 34 36 36 39 42 44 45 41 39 40 44 44 45 44 44 43 43 44 48 52 52 42 41 36 28 22 22 22 25 21 19 22 20 26 27 27 38 55 58 65 68
29 29 31 32 35 38 40 42 42 44 46 42 41 43 46 46 46 45 44 44 45 46 49 53 61 49 42 35 28 27 22 16 21 15 14 10 24 25 29 25 34 46 56 55 64
32 33 35 36 38 40 40 41 42 45 46 45 44 46 48 49 47 46 46 47 47 50 54 58 62 57 42 34 22 23 21 18 15 14 20 19 17 26 34 28 30 37 52 52 59
34 36 36 38 38 39 40 42 44 47 46 44 45 48 49 50 49 48 48 49 53 58 62 65 62 54 36 25 23 22 20 16 12 7 15 16 22 26 17 32 27 25 47 54 56
33 35 36 37 38 38 41 44 45 46 45 45 47 50 51 50 50 50 50 53 61 67 69 64 55 44 32 20 19 18 20 14 13 10 4 16 27 26 24 29 25 31 28 53 54
36 37 37 38 38 40 42 44 46 46 46 47 49 51 52 52 51 52 52 60 69 73 66 54 37 29 25 20 18 14 17 17 18 13 12 17 22 26 12 18 27 28 22 47 52
39 39 39 39 39 40 40 43 46 47 47 48 50 52 54 53 53 52 56 64 72 72 58 43 28 22 18 12 10 5 12 12 13 20 15 11 18 25 18 16 38 28 34 40 51
40 39 38 39 38 37 40 44 46 47 49 50 51 53 54 53 53 54 63 72 75 66 55 42 28 17 6 4 7 14 18 12 11 16 17 11 15 19 17 12 24 37 39 43 45
38 38 37 38 35 38 41 45 47 47 51 51 53 53 52 52 53 58 68 74 70 61 55 37 24 12 10 10 8 16 16 18 20 21 19 18 21 21 16 15 14 49 39 49 41
Wind_Direction
305 300 297 295 297 299 301 303 306 309 311 311 311 308 304 299 294 289 282 279 275 272 271 270 268 266 265 265 262 260 260 261 259 251 248 243 243 244 246 247 246 241 242 239 236
307 301 299 297 297 300 304 308 313 320 328 323 319 315 309 304 300 293 285 279 276 274 273 272 270 268 266 264 261 261 260 261 254 249 243 244 241 245 246 246 247 242 242 235 231
316 317 315 312 311 309 311 315 319 319 320 320 318 319 316 312 301 298 287 282 278 275 275 274 272 270 267 264 264 261 260 260 258 254 248 241 243 244 246 246 249 241 237 238 230
326 322 320 319 312 313 317 319 321 317 316 318 315 314 314 313 308 300 290 283 278 275 274 273 269 268 266 265 261 260 260 258 258 254 250 246 241 241 244 245 247 244 238 237 234
326 321 320 316 310 311 313 312 316 317 319 318 315 313 309 306 303 299 295 289 284 280 276 272 270 268 265 263 263 261 258 258 255 255 254 254 246 241 240 241 241 244 240 235 231
318 317 317 314 309 309 315 319 320 321 321 320 318 315 311 307 302 298 293 290 285 281 278 276 273 270 266 264 263 263 261 260 257 256 255 255 250 247 236 241 239 241 240 234 229
326 327 327 325 320 316 318 320 322 325 329 327 323 322 319 317 312 306 300 293 287 284 282 278 275 272 268 265 262 262 262 260 260 260 258 256 247 245 245 241 233 240 242 234 230
337 337 334 336 333 326 326 333 340 336 335 333 331 327 329 331 326 317 315 309 301 300 298 296 293 287 279 270 266 264 261 261 261 260 260 256 249 241 243 239 235 233 238 237 230
335 335 336 339 347 344 341 340 339 340 337 333 331 327 326 329 332 329 330 315 302 296 300 304 302 298 284 278 273 268 261 259 259 260 258 256 247 243 242 241 236 229 233 236 230
338 342 347 342 348 349 339 335 332 328 331 334 336 337 335 332 333 332 327 322 314 312 312 312 307 299 291 283 275 269 265 259 256 255 254 252 248 244 242 239 239 231 229 234 232
1 350 354 357 354 345 337 333 326 326 337 334 331 332 327 325 330 331 325 321 318 317 315 312 307 302 293 282 272 269 266 261 258 255 252 250 250 248 243 237 237 236 231 231 231
8 8 11 2 354 344 341 340 343 338 338 334 332 328 329 328 325 324 323 318 316 314 318 314 311 310 295 282 277 272 266 260 259 257 254 251 247 248 245 239 237 233 232 231 233
6 5 359 351 346 346 345 339 335 333 331 334 332 328 326 322 325 324 322 318 315 313 313 310 316 316 297 283 276 275 271 264 261 257 257 255 250 247 244 241 236 234 231 230 233
359 355 350 349 345 344 344 344 341 338 333 331 329 330 327 325 326 326 324 320 317 316 314 316 322 322 306 291 280 271 266 264 261 260 257 254 254 247 245 240 237 232 230 228 228
350 346 349 345 339 341 342 342 343 340 337 331 329 328 328 328 326 325 325 324 321 320 319 322 329 326 313 296 284 277 270 265 265 265 262 249 258 246 247 242 236 234 230 228 227
342 339 340 341 339 335 336 337 341 346 338 330 328 329 328 326 326 328 327 325 322 319 319 323 334 331 319 308 295 283 270 267 262 263 261 270 268 258 251 245 239 235 232 226 224
337 335 334 334 334 334 337 341 341 344 340 335 331 329 330 329 329 329 326 324 322 321 320 321 334 334 323 313 304 296 288 276 263 263 274 265 264 284 255 245 238 236 229 226 220
332 331 332 333 333 338 339 336 340 341 343 335 332 334 332 333 331 328 326 325 323 322 321 322 330 337 328 321 306 308 282 280 266 263 253 251 263 262 251 227 228 229 224 223 221
330 329 329 331 333 334 332 337 340 342 342 338 336 335 337 335 331 329 327 325 324 325 323 322 325 333 329 321 306 299 300 278 274 274 260 278 228 257 265 265 230 225 221 219 217
328 328 327 329 331 332 334 337 337 341 343 340 337 339 338 336 332 330 328 326 326 325 323 321 320 326 325 313 299 289 295 279 279 273 250 257 246 249 257 256 231 218 220 216 211
326 326 328 328 331 335 335 334 338 341 344 342 340 340 339 337 333 331 329 327 327 326 322 319 317 320 320 305 288 280 282 276 276 259 244 242 260 252 248 242 226 218 215 212 208
328 327 326 328 331 334 336 339 341 342 344 343 343 342 339 337 335 333 331 329 327 324 322 319 318 316 314 291 279 267 265 266 262 252 232 239 258 245 280 247 235 227 208 209 205
325 326 324 325 331 335 339 341 342 344 344 345 343 343 341 338 336 335 333 330 327 324 324 323 323 315 312 298 267 259 254 253 256 260 280 207 232 243 259 238 229 210 219 209 204
329 328 328 328 331 335 337 340 342 344 345 344 343 344 342 339 337 336 335 332 329 327 327 326 326 316 307 290 277 255 252 237 220 224 231 235 244 247 236 235 201 212 211 204 202
335 336 335 333 332 334 338 341 342 344 344 344 344 344 341 340 339 338 337 334 330 331 332 332 328 315 300 286 283 229 258 229 217 218 234 234 243 244 236 174 192 153 195 198 202
337 336 337 338 337 338 342 342 344 344 344 345 344 344 342 341 341 340 339 337 336 340 335 333 327 320 339 33 254 202 220 213 225 237 245 228 242 247 238 142 166 183 200 197 198
338 338 336 338 340 342 344 344 345 344 345 345 345 344 343 344 342 342 342 342 344 345 335 331 320 311 143 183 210 237 225 224 226 241 240 236 236 246 249 180 160 171 164 153 190
Height
5799 5798 5797 5797 5796 5794 5792 5791 5789 5787 5784 5783 5782 5779 5777 5775 5773 5772 5771 5770 5769 5767 5766 5765 5764 5764 5763 5763 5763 5763 5763 5766 5773 5774 5776 5774 5774 5772 5774 5778 5781 5787 5791 5793 5795
5798 5797 5796 5795 5793 5791 5789 5787 5785 5783 5781 5778 5777 5775 5772 5769 5767 5766 5764 5763 5762 5760 5759 5758 5757 5756 5756 5755 5755 5756 5756 5759 5760 5763 5765 5764 5766 5765 5768 5770 5775 5781 5784 5786 5789
5796 5794 5793 5790 5788 5787 5785 5784 5782 5780 5778 5775 5772 5769 5766 5763 5761 5760 5757 5756 5754 5753 5752 5750 5749 5749 5748 5748 5747 5748 5749 5747 5751 5753 5753 5756 5758 5759 5760 5765 5771 5772 5774 5778 5782
5792 5790 5788 5786 5784 5783 5782 5780 5778 5776 5774 5771 5768 5766 5762 5760 5757 5753 5750 5749 5747 5745 5744 5742 5741 5740 5739 5738 5738 5738 5738 5739 5742 5742 5741 5745 5748 5751 5752 5762 5760 5761 5765 5770 5776
5788 5785 5783 5782 5780 5780 5779 5777 5774 5772 5769 5767 5764 5760 5757 5753 5750 5745 5743 5741 5739 5736 5735 5734 5732 5731 5730 5730 5728 5728 5729 5729 5731 5731 5732 5734 5739 5742 5747 5749 5749 5751 5756 5763 5769
5785 5782 5780 5778 5777 5776 5775 5772 5770 5767 5764 5761 5758 5754 5751 5746 5742 5738 5735 5732 5730 5727 5725 5724 5723 5721 5720 5719 5718 5717 5717 5720 5719 5720 5721 5722 5729 5731 5745 5737 5742 5741 5745 5753 5760
5783 5780 5777 5776 5774 5772 5770 5768 5766 5763 5760 5756 5752 5748 5744 5739 5734 5730 5725 5722 5720 5716 5713 5712 5710 5709 5707 5706 5706 5705 5706 5707 5709 5710 5709 5709 5717 5726 5731 5723 5732 5732 5737 5744 5750
5781 5778 5774 5773 5772 5769 5766 5764 5762 5758 5755 5751 5747 5743 5739 5733 5728 5724 5717 5711 5708 5705 5702 5699 5696 5694 5692 5691 5692 5691 5693 5694 5698 5695 5695 5698 5708 5719 5706 5713 5719 5723 5726 5733 5740
5779 5775 5772 5769 5768 5766 5764 5761 5758 5755 5751 5747 5744 5738 5734 5728 5722 5717 5713 5708 5701 5696 5692 5688 5684 5681 5678 5676 5675 5674 5677 5678 5680 5680 5681 5682 5695 5699 5698 5703 5707 5714 5717 5722 5730
5777 5773 5770 5767 5765 5763 5761 5758 5755 5752 5748 5742 5737 5734 5728 5723 5717 5711 5704 5699 5694 5688 5682 5675 5669 5664 5662 5660 5659 5657 5658 5661 5665 5665 5661 5665 5673 5679 5686 5691 5695 5704 5708 5712 5720
5774 5772 5769 5766 5763 5760 5758 5755 5753 5749 5743 5737 5732 5727 5721 5716 5710 5704 5698 5692 5685 5679 5673 5667 5660 5652 5646 5642 5641 5639 5639 5643 5646 5644 5642 5649 5655 5664 5671 5679 5685 5693 5699 5702 5708
5772 5770 5768 5765 5762 5759 5756 5752 5746 5743 5737 5732 5727 5721 5714 5709 5703 5697 5690 5684 5677 5670 5662 5654 5649 5640 5632 5627 5625 5622 5621 5626 5621 5626 5627 5632 5640 5647 5656 5668 5672 5679 5687 5693 5698
5772 5769 5767 5764 5761 5757 5752 5748 5743 5738 5733 5727 5721 5715 5710 5703 5696 5689 5682 5675 5667 5660 5652 5645 5637 5627 5619 5614 5612 5609 5608 5605 5606 5607 5612 5618 5620 5631 5643 5648 5659 5664 5676 5681 5688
5771 5768 5765 5762 5759 5754 5749 5744 5738 5732 5726 5721 5715 5708 5702 5694 5688 5679 5671 5665 5657 5650 5641 5633 5624 5614 5607 5603 5598 5597 5594 5593 5592 5592 5598 5600 5599 5615 5622 5632 5639 5651 5660 5671 5677
5769 5766 5764 5759 5755 5751 5746 5740 5734 5728 5720 5715 5707 5700 5692 5687 5679 5671 5663 5655 5648 5639 5631 5623 5614 5605 5597 5590 5587 5583 5582 5581 5580 5580 5581 5590 5582 5599 5603 5612 5628 5638 5645 5655 5663
5766 5763 5759 5755 5750 5745 5740 5735 5729 5723 5714 5708 5700 5692 5685 5678 5670 5662 5655 5648 5640 5632 5624 5613 5605 5597 5589 5583 5575 5572 5571 5570 5569 5571 5568 5581 5574 5579 5590 5602 5612 5620 5627 5636 5644
5765 5761 5756 5752 5747 5742 5735 5729 5723 5716 5710 5701 5693 5686 5678 5670 5661 5653 5646 5639 5631 5625 5618 5608 5600 5590 5581 5577 5569 5563 5560 5560 5565 5563 5566 5566 5566 5573 5575 5582 5588 5588 5597 5611 5623
5761 5757 5753 5748 5741 5735 5729 5725 5717 5710 5701 5693 5686 5678 5670 5662 5654 5644 5636 5628 5621 5614 5605 5598 5592 5585 5574 5567 5562 5557 5555 5553 5551 5556 5556 5557 5558 5556 5552 5550 5553 5572 5580 5594 5607
5756 5752 5747 5741 5736 5731 5726 5718 5710 5703 5695 5686 5678 5670 5662 5653 5644 5636 5627 5619 5610 5604 5595 5584 5579 5576 5567 5559 5555 5552 5549 5547 5543 5544 5546 5548 5550 5541 5543 5545 5547 5556 5566 5577 5592
5752 5747 5743 5738 5732 5726 5718 5712 5705 5697 5688 5679 5670 5663 5654 5645 5636 5626 5617 5611 5601 5594 5584 5575 5560 5565 5560 5552 5547 5542 5541 5541 5537 5537 5539 5543 5534 5535 5535 5537 5540 5544 5554 5566 5579
5747 5742 5737 5731 5726 5719 5714 5706 5698 5690 5681 5672 5663 5655 5646 5637 5627 5618 5609 5601 5592 5584 5573 5562 5553 5550 5547 5540 5538 5534 5531 5531 5531 5531 5530 5531 5528 5526 5526 5528 5531 5534 5542 5554 5566
5741 5737 5731 5725 5722 5715 5706 5697 5690 5682 5674 5665 5656 5648 5638 5629 5620 5609 5600 5589 5581 5570 5561 5549 5538 5530 5531 5527 5525 5523 5523 5523 5524 5527 5524 5525 5523 5520 5518 5519 5523 5525 5531 5542 5553
5736 5731 5725 5719 5713 5707 5699 5691 5683 5675 5666 5658 5650 5641 5631 5622 5612 5601 5592 5581 5568 5555 5542 5530 5521 5511 5512 5514 5513 5513 5512 5515 5516 5519 5518 5517 5514 5514 5515 5512 5516 5519 5525 5533 5544
5730 5724 5719 5713 5706 5699 5692 5685 5677 5669 5661 5652 5644 5635 5625 5614 5604 5594 5584 5570 5554 5539 5527 5514 5508 5501 5499 5501 5502 5505 5504 5506 5508 5511 5509 5510 5507 5506 5509 5507 5513 5515 5517 5525 5534
5725 5719 5712 5706 5701 5694 5687 5679 5671 5662 5655 5646 5636 5628 5618 5608 5598 5587 5576 5564 5545 5529 5512 5503 5499 5494 5491 5491 5495 5496 5496 5498 5499 5502 5504 5504 5501 5499 5503 5501 5508 5500 5513 5518 5527
5718 5713 5706 5701 5694 5688 5681 5674 5666 5657 5649 5640 5631 5621 5610 5600 5589 5579 5566 5547 5531 5516 5499 5492 5488 5486 5485 5489 5490 5490 5491 5493 5493 5493 5496 5498 5496 5494 5497 5496 5496 5503 5511 5513 5522
5713 5708 5702 5696 5689 5684 5677 5668 5660 5651 5643 5634 5624 5614 5604 5594 5583 5570 5554 5534 5516 5504 5486 5481 5476 5477 5480 5487 5489 5486 5486 5488 5488 5487 5489 5493 5491 5491 5493 5494 5496 5495 5499 5496 5516